SCOUT X-4 DEB, 3750

Orbit data source: Space-Track

SCOUT X-4 DEB, 3750 is space debris in LEO originally from a launch on Thu, 19 Dec 1963 UTC launched from the Air Force Western Test Range (AFWTR). Debris objects in space refer to the collection of defunct objects orbiting the Earth. Examples of debris include non-operational satellites, rocket bodies, and fragments generated from explosions, collisions, or faulty payload assembly.

Loading next visibility...
Identifier
3750, 1963-053J
Orbit
LEO
Country
Flag of USUS
Related business
Manufacturer
Unknown
Mission
Spacecraft
Bus & Motor
Unknown
Mass
Unknown
Launch date (UTC)
1963-12-19 (62 years ago)
Launch vehicle
Unknown
Launch site
Air Force Western Test Range (AFWTR)
Object type
Payload
Rocket body
Debris
Shape & HBR
Unknown shape, 0.1 m
Radar Cross Section
Small (<0.1 m²)

Expand to show TLE details & history
Last TLE update: 10 hours ago

TLE from 10 hours ago
0 SCOUT X-4 DEB
1 03750U 63053J   25341.88541723  .00032044  00000-0  36850-2 0  9992
2 03750  78.5695 302.7408 0173335 192.7172 166.9629 14.75337631780220
Epoch: 2025-12-07T21:15Z
TLE epoch observation values (Epoch: 2025-12-07T21:15:00.048Z)
Latitude
Longitude
-92.90178°
Altitude
765.678 km
Speed
7.408 km/s
True Right ascension
20h 10m 57s
True Declination
0° 00' 00"
Sunlit
Object was in daylight at epoch
Visualization orbit readout
Latitude
Unknown
Longitude
Unknown
Altitude
Unknown
Speed
Unknown
Apparent Right ascension
Unknown
Apparent Declination
Unknown
Sunlit
N/A
Visualization observer readout
Local Sidereal Time
05:11:21
Azimuth
Unknown
Elevation
Unknown
Doppler factor
Unknown
Orbital elements
Apogee altitude
762.989 km
Perigee altitude
519.645 km
Semi-major axis
7,019.454 km
Eccentricity
0.01733
Inclination
78.5695°
RAAN
302.7408°
Arg. of periapsis
192.7172°
True anomaly
167.40169°
Mean anomaly
166.9629°
Eccentric anomaly
167.18321°
Mean motion
3.69053 °/min
Orbital period
97.55 mins
BSTAR
0.003685
Loading maneuver chart data...
Computing Atmospheric mass density...
Loading historical data...
Loading historical data...
Loading historical data...
Loading historical data...
Loading historical data...
Loading historical data...
Loading historical data...

Documentation

Showing up to 5 results
|